Date String (YYYY-MM-DD hh:mm:ss) UTC,Instrument flags,absolute air pressure of the measurement (hPa),sample flow rate (lpm),inlet stack bypass flow (lpm),air temperature of the measurement (°C),ambient temperature measured by the external sensor (°C),aerosol sample conditioner tube jacket temperature (°C),OPC LED temperature (°C),internal box temperature (°C),relative humidity of the measurement (%),span deviation,mass concentration of particles derived from Lorenz-Mie calculation of OPC scattering (μg/m³),mass concentration of particles derived from Lorenz-Mie calculation of OPC scattering (μg/m³),mass concentration of particles derived from Lorenz-Mie calculation of OPC scattering (μg/m³)
DateTimeUTC,F1_M11,P_M11,Q1_M11,Q2_M11,T1_M11,T2_M11,T3_M11,T4_M11,T5_M11,U1_M11,ZSPAN_M11,X0_M11,X2_M11,X1_M11
2023-11-12 07:00:00,SystemResetWarning,0831.6,5.00,000.00,023.5,022.5,000.0,031.9,025.0,7.3,0000.0,0004.70,0001.57,0001.16
2023-11-12 07:01:00,SystemResetWarning,0831.5,5.01,000.00,023.5,022.5,000.0,031.9,025.0,7.3,0000.0,0004.57,0001.57,0001.17
2023-11-12 07:02:00,SystemResetWarning,0831.6,5.00,000.00,023.5,022.5,000.0,031.9,025.0,7.3,0000.0,0004.95,0001.61,0001.17
2023-11-12 07:03:00,SystemResetWarning,0831.6,5.00,000.00,023.5,022.5,000.0,031.9,025.0,7.3,0000.0,0005.79,0001.61,0001.17
2023-11-12 07:04:00,SystemResetWarning,0831.6,5.00,000.00,023.5,022.5,000.0,031.9,025.0,7.4,0000.0,0005.91,0001.65,0001.17
2023-11-12 07:05:00,SystemResetWarning,0831.6,5.00,000.00,023.6,022.5,000.0,031.9,025.0,7.4,0000.0,0006.01,0001.68,0001.17
2023-11-12 07:06:00,SystemResetWarning,0831.5,5.00,000.00,023.5,022.5,000.0,031.9,025.0,7.4,0000.0,0005.91,0001.63,0001.16
2023-11-12 07:07:00,SystemResetWarning,0831.5,5.00,000.00,023.6,022.6,000.0,031.9,025.0,7.4,0000.0,0006.98,0001.61,0001.15
2023-11-12 07:08:00,SystemResetWarning,0831.5,5.00,000.00,023.6,022.6,000.0,031.9,025.0,7.4,0000.0,0007.42,0001.63,0001.15
2023-11-12 07:09:00,SystemResetWarning,0831.5,4.99,000.00,023.6,022.6,000.0,031.9,025.0,7.4,0000.0,0007.38,0001.64,0001.15
2023-11-12 07:10:00,SystemResetWarning,0831.5,4.99,000.00,023.6,022.6,000.0,031.9,025.0,7.4,0000.0,0006.45,0001.64,0001.16
2023-11-12 07:11:00,SystemResetWarning,0831.5,5.00,000.00,023.6,022.6,000.0,031.9,025.0,7.3,0000.0,0006.63,0001.68,0001.16
2023-11-12 07:12:00,SystemResetWarning,0831.5,5.00,000.00,023.6,022.6,000.0,031.9,025.0,7.3,0000.0,0007.33,0001.70,0001.16
2023-11-12 07:13:00,SystemResetWarning,0831.5,5.00,000.00,023.6,022.5,000.0,031.9,025.0,7.4,0000.0,0007.12,0001.69,0001.16
2023-11-12 07:14:00,SystemResetWarning,0831.5,5.00,000.00,023.6,022.5,000.0,031.9,025.0,7.3,0000.0,0006.15,0001.68,0001.17
2023-11-12 07:15:00,SystemResetWarning,0831.5,5.00,000.00,023.6,022.5,000.0,031.9,024.9,7.4,0000.0,0006.10,0001.67,0001.17
2023-11-12 07:16:00,SystemResetWarning,0831.5,5.00,000.00,023.6,022.5,000.0,031.9,025.0,7.4,0000.0,0006.12,0001.68,0001.17
2023-11-12 07:17:00,SystemResetWarning,0831.5,5.01,000.00,023.6,022.5,000.0,031.9,025.0,7.4,0000.0,0006.23,0001.72,0001.18
2023-11-12 07:18:00,SystemResetWarning,0831.5,5.00,000.00,023.6,022.5,000.0,031.9,025.0,7.4,0000.0,0005.21,0001.75,0001.18
2023-11-12 07:19:00,SystemResetWarning,0831.5,5.01,000.00,023.6,022.5,000.0,031.9,025.0,7.4,0000.0,0004.67,0001.71,0001.16
2023-11-12 07:20:00,SystemResetWarning,0831.6,5.00,000.00,023.6,022.5,000.0,031.9,025.0,7.4,0000.0,0004.56,0001.69,0001.15
2023-11-12 07:21:00,SystemResetWarning,0831.6,5.00,000.00,023.6,022.5,000.0,031.9,025.0,7.4,0000.0,0004.64,0001.73,0001.16
2023-11-12 07:22:00,SystemResetWarning,0831.6,5.00,000.00,023.5,022.5,000.0,031.9,025.0,7.4,0000.0,0003.44,0001.72,0001.15
2023-11-12 07:23:00,SystemResetWarning,0831.6,5.00,000.00,023.5,022.5,000.0,031.9,025.0,7.4,0000.0,0002.78,0001.71,0001.15
2023-11-12 07:24:00,SystemResetWarning,0831.6,5.00,000.00,023.5,022.5,000.0,031.9,025.0,7.5,0000.0,0002.75,0001.68,0001.15
2023-11-12 07:25:00,SystemResetWarning,0831.6,5.00,000.00,023.5,022.5,000.0,031.9,025.0,7.5,0000.0,0002.76,0001.65,0001.14
2023-11-12 07:26:00,SystemResetWarning,0831.7,4.99,000.00,023.6,022.5,000.0,031.9,025.0,7.7,0000.0,0002.67,0001.58,0001.14
2023-11-12 07:27:00,SystemResetWarning,0831.7,5.00,000.00,023.6,022.6,000.0,031.9,025.0,7.8,0000.0,0002.68,0001.59,0001.15
2023-11-12 07:28:00,SystemResetWarning,0831.7,5.00,000.00,023.6,022.6,000.0,031.9,025.0,7.8,0000.0,0002.82,0001.58,0001.16
2023-11-12 07:29:00,SystemResetWarning,0831.7,5.01,000.00,023.6,022.6,000.0,031.9,025.0,7.7,0000.0,0002.94,0001.56,0001.17
2023-11-12 07:30:00,SystemResetWarning,0831.7,5.00,000.00,023.6,022.6,000.0,031.9,025.0,7.7,0000.0,0002.97,0001.58,0001.18
2023-11-12 07:31:00,SystemResetWarning,0831.7,5.00,000.00,023.6,022.6,000.0,031.9,025.0,7.7,0000.0,0003.02,0001.60,0001.20
2023-11-12 07:32:00,SystemResetWarning,0831.7,5.00,000.00,023.6,022.6,000.0,031.9,025.1,7.8,0000.0,0002.99,0001.58,0001.20
2023-11-12 07:33:00,SystemResetWarning,0831.7,5.01,000.00,023.6,022.6,000.0,031.9,025.1,7.9,0000.0,0003.09,0001.57,0001.20
2023-11-12 07:34:00,SystemResetWarning,0831.7,5.00,000.00,023.6,022.7,000.0,031.9,025.1,7.8,0000.0,0003.32,0001.62,0001.20
2023-11-12 07:35:00,SystemResetWarning,0831.7,5.00,000.00,023.6,022.7,000.0,031.9,025.1,7.7,0000.0,0003.82,0001.68,0001.20
2023-11-12 07:36:00,SystemResetWarning,0831.7,4.99,000.00,023.6,022.6,000.0,031.9,025.1,7.6,0000.0,0003.95,0001.71,0001.21
2023-11-12 07:37:00,SystemResetWarning,0831.8,4.99,000.00,023.6,022.6,000.0,031.9,025.1,7.5,0000.0,0004.17,0001.76,0001.23
2023-11-12 07:38:00,SystemResetWarning,0831.9,5.01,000.00,023.6,022.7,000.0,032.0,025.1,7.4,0000.0,0004.31,0001.76,0001.22
2023-11-12 07:39:00,SystemResetWarning,0832.0,5.01,000.00,023.6,022.6,000.0,032.0,025.1,7.4,0000.0,0004.35,0001.81,0001.24
2023-11-12 07:40:00,SystemResetWarning,0832.3,5.01,000.00,023.6,022.6,000.0,032.0,025.1,7.4,0000.0,0004.24,0001.83,0001.23
2023-11-12 07:41:00,SystemResetWarning,0832.3,4.99,000.00,023.6,022.6,000.0,032.0,025.1,7.4,0000.0,0004.37,0001.84,0001.24
2023-11-12 07:42:00,SystemResetWarning,0832.0,4.99,000.00,023.7,022.7,000.0,032.0,025.1,7.3,0000.0,0004.40,0001.84,0001.23
2023-11-12 07:43:00,SystemResetWarning,0832.1,4.99,000.00,023.6,022.7,000.0,032.0,025.1,7.4,0000.0,0004.35,0001.81,0001.22
2023-11-12 07:44:00,SystemResetWarning,0832.2,5.00,000.00,023.7,022.7,000.0,032.0,025.1,7.4,0000.0,0004.16,0001.78,0001.21
2023-11-12 07:45:00,SystemResetWarning,0832.0,5.00,000.00,023.7,022.7,000.0,032.0,025.0,7.4,0000.0,0003.98,0001.74,0001.21
2023-11-12 07:46:00,SystemResetWarning,0831.8,5.01,000.00,023.7,022.7,000.0,032.0,025.1,7.3,0000.0,0003.37,0001.66,0001.21
2023-11-12 07:47:00,SystemResetWarning,0831.7,4.99,000.00,023.7,022.7,000.0,032.0,025.1,7.4,0000.0,0003.17,0001.62,0001.20
2023-11-12 07:48:00,SystemResetWarning,0831.8,4.99,000.00,023.7,022.7,000.0,032.0,025.1,7.3,0000.0,0003.02,0001.61,0001.19
2023-11-12 07:49:00,SystemResetWarning,0831.8,5.00,000.00,023.7,022.7,000.0,032.0,025.1,7.3,0000.0,0002.88,0001.65,0001.19
2023-11-12 07:50:00,SystemResetWarning,0831.8,5.01,000.00,023.7,022.7,000.0,032.0,025.1,7.2,0000.0,0002.80,0001.64,0001.16
2023-11-12 07:51:00,SystemResetWarning,0831.8,5.01,000.00,023.7,022.7,000.0,032.0,025.1,7.3,0000.0,0002.61,0001.60,0001.16
2023-11-12 07:52:00,SystemResetWarning,0831.8,5.00,000.00,023.7,022.7,000.0,032.0,025.2,7.3,0000.0,0002.68,0001.63,0001.15
2023-11-12 07:53:00,SystemResetWarning,0831.8,4.99,000.00,023.7,022.8,000.0,032.0,025.2,7.3,0000.0,0002.67,0001.62,0001.14
2023-11-12 07:54:00,SystemResetWarning,0831.9,4.99,000.00,023.7,022.8,000.0,032.0,025.2,7.3,0000.0,0002.68,0001.62,0001.13
2023-11-12 07:55:00,SystemResetWarning,0831.9,5.00,000.00,023.7,022.8,000.0,032.0,025.2,7.2,0000.0,0002.76,0001.63,0001.12
2023-11-12 07:56:00,SystemResetWarning,0831.9,4.99,000.00,023.7,022.9,000.0,032.0,025.2,7.2,0000.0,0002.83,0001.65,0001.12
2023-11-12 07:57:00,SystemResetWarning,0832.0,4.99,000.00,023.8,022.9,000.0,032.0,025.2,7.2,0000.0,0002.88,0001.67,0001.13
2023-11-12 07:58:00,SystemResetWarning,0832.0,5.01,000.00,023.8,022.9,000.0,032.0,025.2,7.2,0000.0,0003.13,0001.74,0001.14
2023-11-12 07:59:00,SystemResetWarning,0832.1,5.00,000.00,023.8,022.9,000.0,032.1,025.2,7.3,0000.0,0003.17,0001.74,0001.14
